Regional Weather Roundup
Issued by NWS Kansas City/Pleasant Hill, MO

Current Version | Previous Version | Graphics & Text | Print | Product List | Glossary On
Versions: 1 2 3 4 5 6 7 8 9 10 11 12 13 14 15 16 17 18 19 20 21 22 23 24 25 26 27 28 29 30 31 32 33 34 35 36 37 38 39 40 41 42 43 44 45 46 47 48 49 50
000
ASUS43 KEAX 212015
RWREAX

WEATHER ROUNDUP FOR EASTERN KANSAS AND NORTHWEST MISSOURI
NATIONAL WEATHER SERVICE KANSAS CITY/PLEASANT HILL MO
300 PM CDT SAT MAY 21 2022

KSZ040-057-103>105-MOZ028-029-037-043-212100-
...KANSAS CITY METROPOLITAN AREA...

CITY           SKY/WX    TMP DP  RH WIND       PRES   REMARKS
K.C. INTL      CLOUDY    59  45  59 N13G21    30.12R
K.C. DOWNTOWN  CLOUDY    61  45  55 NW13G21   30.11R
LEES SUMMIT    CLOUDY    59  47  64 N14       30.11R
OLATHE - IXD   CLOUDY    60  46  59 N15G25    30.12R
OLATHE - OJC   CLOUDY    62  45  53 N14G21    30.11R
LAWRENCE       PTSUNNY   63  46  54 NW16G28   30.14R

$$

MOZ001>008-011>017-020>025-030>033-038>040-044>046-053-054-212100-
...NORTHERN AND CENTRAL MISSOURI...

CITY           SKY/WX    TMP DP  RH WIND       PRES   REMARKS
ST. JOSEPH     PTSUNNY   60  37  42 NW12G24   30.14S
MOSBY          CLOUDY    61  43  51 N15       30.11S
HARRISONVILLE  CLOUDY    63  48  59 N9        30.11F
WHITEMAN AFB   CLOUDY    61  48  63 N13       30.04R
CLINTON        CLOUDY    59  52  77 N10       30.07S
SEDALIA        CLOUDY    60  51  72 N15       30.08R
MARSHALL       CLOUDY    59  50  72 NW10      30.09S
CHILLICOTHE      N/A     63  45  51 VRB7      30.10F
MOBERLY        MOSUNNY   63  46  55 N10       30.07R
KIRKSVILLE     PTSUNNY   60  47  61 NW9G20    30.07F

$$

MOZ041-047>049-056>058-063>065-088>090-097-212100-
...EASTERN AND SOUTHERN MISSOURI...

CITY           SKY/WX    TMP DP  RH WIND       PRES   REMARKS
ST. LOUIS INTL TSTM      60  56  86 N8        30.00F
SPIRIT OF STL  CLOUDY    58  55  90 N13       29.98F THUNDER
COLUMBIA       CLOUDY    62  52  69 NE8       30.04S
JEFFERSON CITY CLOUDY    62  50  64 N6        30.03F
MEXICO         CLOUDY    59  54  82 N9        30.05R
HANNIBAL       CLOUDY    61  46  59 NW7       30.05R
ROLLA          TSTM      54  53  97 NW7       30.03S
LEBANON        TSTM      52  50  93 N5        30.05R
SPRINGFIELD    LGT RAIN  53  52  96 N12       30.02F
BRANSON        CLOUDY    63  63 100 N13       29.98S
JOPLIN         CLOUDY    56  51  84 N10G21    30.06R
WEST PLAINS    CLOUDY    73  63  70 E3        29.96F
SIKESTON       LGT RAIN  68  68 100 SE13      29.95F

$$

IAZ060-094-KSZ022-034>040-054-083-096-NEZ052-066-093-212100-
...KANSAS...SOUTHEAST NEBRASKA AND IOWA...

CITY           SKY/WX    TMP DP  RH WIND       PRES   REMARKS
TOPEKA         MOSUNNY   64  44  48 N14G23    30.15R
MANHATTAN      PTSUNNY   61  35  37 N9G25     30.19R
EMPORIA        MOSUNNY   62  42  47 N15G30    30.14R
OTTAWA         PTSUNNY   63  46  55 N18G25    30.11R
CHANUTE        PTSUNNY   65  48  54 N15G21    30.09R
SALINA         CLOUDY    58  32  37 N21G30    30.22S
WICHITA        MOSUNNY   62  35  36 N23G35    30.14S
OMAHA          PTSUNNY   59  34  39 NW15G25   30.16F
LINCOLN        PTSUNNY   60  33  36 NW20G30   30.20F
FALLS CITY     CLOUDY    57  37  47 N13G25    30.17R
LAMONI         PTSUNNY   60  39  45 NW18G24   30.11S
DES MOINES     CLOUDY    58  34  40 N12       30.12S

$$




USA.gov is the U.S. government's official web portal to all federal, state and local government web resources and services.